Location: Okie-Tex Star Party
(36.8978°N, 102.9520°W)
Time: 22:10:31
(UTC-05:00)

Daily predictions for brighter satellites

Satellite Brightness Start Highest point End
(mag) Time Altitude Azimuth Time Altitude Azimuth Time Altitude Azimuth
ATLAS 5 CENTAUR R/B 2.1 19:53:51 10° SW 19:58:34 76° WNW 20:03:41 10° NNE
Cosmos-2242 3.8 19:55:28 10° SSE 19:59:18 31° E 20:03:09 10° NNE
MSX 3.9 19:54:41 10° SSE 20:00:26 89° ENE 20:06:13 10° NNW
SJ-6B 3.5 19:59:18 10° SE 20:02:58 36° ENE 20:06:43 10° N
Milstar 3 4.4 19:55:37 10° WSW 20:04:10 56° S 20:20:20 10° ESE
FREGAT/IRIS 3.8 20:02:22 10° SE 20:04:54 23° ENE 20:07:26 10° NNE
Cosmos 2056 Rocket 4.2 20:00:46 10° NNW 20:06:09 63° WSW 20:11:28 10° S
CZ-2C R/B 3.8 20:01:36 10° S 20:06:18 43° W 20:10:52 10° NNW
Cosmos 1544 4.1 20:04:16 10° SSE 20:07:23 26° E 20:10:33 10° NNE
Cosmos 1484 Rocket 2.8 20:05:40 10° SSE 20:09:29 89° SE 20:13:25 10° NNW
SAR-Lupe-4 3.7 20:07:25 10° SSE 20:10:53 51° ENE 20:14:22 10° N
Cosmos 1758 3.3 20:14:40 10° S 20:18:41 61° E 20:22:44 10° NNE
USA 215 3.6 20:12:52 10° ENE 20:19:03 44° SE 20:25:12 10° SSW
Cosmos 724 4.4 20:13:38 10° SSW 20:19:32 84° WNW 20:25:38 10° NNE
OAO 3 Rocket 3.3 20:15:50 10° W 20:20:31 67° S 20:24:38 14° ESE
Cosmos 1378 4.0 20:21:23 10° NNW 20:25:02 53° W 20:28:40 10° S
Cosmos 1408 Rocket 3.4 20:23:45 10° N 20:28:06 84° E 20:32:24 10° S
Cosmos 1842 Rocket 4.3 20:24:23 10° SSE 20:28:10 30° E 20:31:57 10° NNE
Cosmos 1464 Rocket 4.2 20:22:10 10° S 20:28:24 79° W 20:34:36 10° N
Cosmos 2034 Rocket 4.0 20:22:23 10° S 20:28:38 77° E 20:34:58 10° N
SL-16 R/B 4.0 20:24:31 10° SW 20:29:37 34° WNW 20:34:46 10° N
Helios 1A 3.4 20:32:11 10° SE 20:36:08 42° ENE 20:40:07 10° N
FENGYUN 3A 4.4 20:32:29 11° SE 20:37:01 31° ENE 20:41:43 10° N
Spot 1 4.2 20:32:43 10° SSE 20:37:21 61° ENE 20:41:44 10° N
Meteor 1-21 Rocket 4.1 20:33:36 10° N 20:39:09 70° E 20:44:39 10° SSE
Meteor 1-28 Rocket 3.8 20:40:20 10° N 20:43:59 58° WNW 20:47:38 10° SSW
Meteor 1-29 3.1 20:41:07 10° NNE 20:44:32 51° E 20:47:55 10° S
GPS 2-04 Rocket1 2.4 20:44:55 10° WSW 20:48:21 66° S 20:49:39 35° ESE
H-2A R/B 3.7 20:52:21 28° ENE 20:52:21 28° ENE 20:55:31 10° NNE
Resurs 1-3 3.5 20:53:08 10° SSE 20:57:29 67° ENE 21:01:51 10° N
ASTEX 1 3.4 20:53:43 10° NNE 20:58:31 53° E 21:03:16 10° S
Cosmos 1743 Rocket 3.5 20:54:32 10° N 20:58:59 86° E 21:03:21 10° S
Elektron 1 3.9 20:57:47 10° SW 21:00:44 70° NW 21:02:39 21° NNE
ALOS 2.4 20:58:48 23° SE 21:01:30 52° ENE 21:06:03 10° N
Cosmos 1943 Rocket 3.5 20:58:33 10° N 21:02:42 21° NE 21:02:44 21° ENE
Resurs 01 Rocket 1.8 21:01:19 10° S 21:05:46 75° W 21:10:12 10° NNW
Cosmos 2251 Rocket 3.9 21:00:57 10° S 21:05:46 39° ESE 21:10:37 10° NE
Helios 1B rocket 2.8 21:03:06 10° N 21:07:11 64° WNW 21:11:14 10° SSW
ISS -1.4 21:06:05 10° W 21:08:54 26° NNW 21:10:31 18° NNE
Cosmos 1943 3.1 21:04:12 10° SSW 21:09:49 84° ESE 21:15:28 10° NNE
Cosmos 1953 4.5 21:07:00 10° SW 21:10:27 28° WNW 21:13:55 10° NNW
Cosmos 2369 Rocket 2.3 21:05:17 10° NNW 21:10:51 55° ENE 21:12:52 36° ESE
Cosmos 1733 3.1 21:10:28 10° S 21:14:20 89° W 21:18:13 10° N
Gbstr 26 Del rocket 3.6 21:11:24 10° WSW 21:15:43 61° NW 21:19:04 21° NE
Cosmos 839 Rocket 4.3 21:10:27 10° NNW 21:17:47 56° NE 21:20:01 39° ESE
CENTAUR R/B 2.6 21:11:55 10° SW 21:17:53 78° WNW 21:24:38 10° NNE
Cosmos 1470 3.4 21:18:03 10° SSW 21:21:52 55° W 21:25:42 10° N
Cosmos 2263 4.4 21:17:13 10° N 21:22:49 49° ENE 21:23:30 47° E
Cosmos 1674 3.2 21:20:39 10° NNW 21:24:29 59° W 21:26:29 26° SSW
GP-B 3.1 21:26:31 10° N 21:30:26 65° NE 21:30:26 65° NE
Cosmos 2279 Rocket 4.0 21:32:29 52° ESE 21:32:47 53° E 21:38:46 10° NNE
Cosmos 2151 3.6 21:35:08 10° N 21:38:14 48° N 21:38:14 48° N
Cosmos 1092 Rocket 4.4 21:38:03 10° NNW 21:44:06 60° W 21:50:07 10° S
SL-24 R/B - RUBIN 2 4.5 21:40:38 10° NNW 21:47:11 60° NE 21:47:14 60° ENE
Meteor 2-1 Rocket 4.2 21:50:46 70° NE 21:50:46 70° NE 21:56:03 10° NNE
Meteor 1-16 Rocket 4.2 21:47:00 10° SSW 21:52:17 72° W 21:57:36 10° N
Cosmos 1655 Rocket 3.8 21:48:37 10° N 21:54:52 82° E 21:55:09 79° SE
Cosmos 2026 Rocket 3.8 21:48:57 10° N 21:55:06 89° WSW 21:55:57 68° S
USA 215 4.0 21:56:44 15° NNE 22:02:03 50° NW 22:08:16 10° WSW
Meteor 1-11 4.4 22:02:00 10° NNW 22:07:35 71° W 22:07:35 71° W
Cosmos 1943 Rocket 3.8 22:41:19 10° NNW 22:44:16 30° NW 22:44:16 30° NW
Cosmos 2369 Rocket 4.4 22:50:39 10° WNW 22:54:21 18° W 22:54:43 18° WSW
